 テレメトリ	    内   容		換算値	単 位
 F1ー12	磁気センサーX軸=      113235.3 nT
 F1ー13	磁気センサーZ軸=	28921.6 nT
 F0ー15	太陽電池発生電流=	 1362.8	mA
 F0ー16	B充放電電流	=	  138.0	mA
 F0ー17	B端子電圧	=	   15.8	V
 F0ー18	B中間端子電圧	=	    6.9	V
 F0ー19	バス電圧	=	   17.3	V
 F0ー20	+5安定化電圧	=	    5.1	V
 F0ー21	ー5V安定化電圧	=	   -4.9	V
 F0ー22	+10V安定化電圧=	   10.1	V
 F0ー23	JTA出力電力	=	  -91.6	mW
 F0ー24	JTD出力電力	=	  841.1	mW
 F0ー25	Bセル温度	=	   10.8	℃
 F0ー26	構体温度ー1	=	    9.6	℃
 F0ー27	構体温度ー2	=	   10.4	℃
 F0ー28	構体温度ー3	=	   10.0	℃
 F0ー29	構体温度ー4	=	   10.0	℃
 F1ー18	太陽電池パネル温度ー1=   -4.7	℃
 F1ー19	太陽電池パネル温度ー2=    8.9	℃
 F1ー24	太陽電池パネル温度ー3=   13.4	℃
 F1ー23	JTD  Tr温度=	   13.1	℃

 *計算処理は OFFICE 97 を使用.
 *JAアナログモードとJDディジタルモードの時のテレメトリの比較をしてみてください.
  
 ==============================================================================
  4)FO−20(ふじ2号)のCWテレメトリは5月10日(月)18:27(JST)の
     パスではテレメトリーが単一トーンの連続音から唸りを伴った連続音、さらにゆらぎの
     ある信号になり、いままでより若干信号が弱くなっていました.

 -----------------------------  FO - 20 軌道要素 ----------------------------------
 
■ 軌道要素1 :出典は「ふじ3号」に同じ. 
  
  FO-20
 1 20480U 90013C   99146.11592962 -.00000034  00000-0 -12977-5 0  1432
 2 20480  99.0252 345.0378 0540211 214.5454 141.9412 12.83252169435509
 
 ■ 軌道要素2 :出典は「ふじ3号」に同じ.  
               
  Satellite: FO-20
 Catalog number: 20480
 Epoch time:      99146.11592962
 Element set:     143
 Inclination:       99.0252 deg
 RA of node:       345.0378 deg
 Eccentricity:    0.0540211
 Arg of perigee:   214.5454 deg
 Mean anomaly:     141.9412 deg
 Mean motion:   12.83252169 rev/day
 Decay rate:       -3.4e-07 rev/day^2
 Epoch rev:           43550
 Checksum:              280

  ====================    FO-20 の FFTDSP ==========================
  
  JE9PEL/1局 脇田 美根夫氏がFO−20の信号のドップラーシフトの
  FFT分析表示例をFO-29の続き[jamsat-bb:4506]にレポートされていました
  ので転載させて頂きました.

 FO-20(JAS-1b)を、4〜5年ぶりに聞いてみました。
 仰角0度で、太平洋上をすれすれに飛ぶパスです。
 435.795MHz の CWビーコンは、SN比 10dB以下の
 単一トーンのキャリアのみとなっていました。
 FFTDSP による解析図は、下記URLを参照下さい。
 ----------------------------------------------
 Name : JE9PEL/1 脇田
 Mail : je9pel@jamsat.or.jp
 URL  : http://www.ne.jp/asahi/hamradio/je9pel/
 QTH  : Yokohama, Japan
 Date : 26 May. 1999
 ----------------------------------------------
    =====================================================================

 5)JARL のホームページに新しい運用追加予定が記載されていましたのでご紹介します.
       ( http://www.jarl.or.jp/Japanese/3_Fuji/uy.htm )

        ■ ふじ3号/FO−29 ■  
  
    *** 運用予定について ***
   
  ☆5月24日 〜 5月31日     アナログ運用
   5月31日 〜 6月07日     デジタル系1200bpsメールボックス運用
   6月07日 〜 6月14日     アナログ系運用
   6月14日 〜 6月21日     デジタル系1200bpsメールボックス運用
   6月21日 〜 7月05日     アナログ系運用

 なお,運用予定は都合により変更することがありますのでご了承願います。

 照会先 : lab@jarl.or.jp

 最新の情報はテレホンサービス(:03−3942−1000)をお聞きください。
   
  以後の運用に付きましては6月7日18時頃にお知らせいたします。

        ■ ふじ2号/FO−20 ■      
            「ふじ2号」 現況                                                                                               
   JAS-1b/FO-20(ふじ2号)の不具合発生について
    JAS-1b(ふじ2号)のCWテレメトリ信号に,1997年10月12日12時
 (JST)の日本上空通過時,3桁の数字が繰り返されるはずが3個の長音の
  繰り返しとなっているという異常が発見されました。この不具合は次の通過時
  からは回復していましたが13日15時20分の通過時に再び観測されました。
  衛星のアナログ系中継モード動作は異常が無く,正常時のテレメトリ内容からは
  衛星の動作に異常は認められません。従って,直ちに衛星のミッションに影響す
  ることは無いと予想されますので,当面はアナログ系中継モードを継続します。
  衛星は既に打ち上げてから7年8ヶ月を経ておりますので,今後は監視を強化す
  る予定です。アマチュア各位のレポートをお待ちします.   
  
  以上  http://www.jarl.or.jp/Japanese/3_Fuji/fuji.htm
                                           
   =============   JAS-2 (ふじ3号)と現在までの情報   ===========
  
  A.電話によるふじ3号の運用情報
      社団法人日本アマチュア連盟によるサービス
           TEL .   03− 3942 − 1000
  B.アマチュア無線FAXサービス
      JARLによるふじ3号の軌道情報(オービットカレンダー)
         FAX No.  03− 3233 −0055
  C.WWWブラウザで情報を簡単に見れる人のためにJAS−2
     ふじ3号の衛星としての運用されるまでの名前)の概要、打ち上げ
     までの状況、運用中における状況を説明したホームページを紹介し
     ておきます.
     社団法人日本アマチュア無線連盟(JARL)のホームページ

          http://www.jarl.or.jp/Japanese/3_Fuji
 
     宇宙開発事業団(NASDA)ホームページ 
          http://www.nasda.go.jp/
         打上げ衛星 :地球観測プラットフォーム技術衛星(ADEOS) 
                       アマチュア衛星3号(JAS-2)
          http://yyy.tksc.nasda.go.jp/Home/Press/Press-j/jas-2_j.html        

  D.JAMSATによる軌道情報の活用
        JAMSATのホームページまたはjamsat−kepsの軌道要素より
      衛星の軌道情報を得る.
     JAMSATホームページ
               URL    http://www.jamsat.or.jp
       上記ホームページでは各地で行われるアマチュア通信衛星に関する
      ミューティングのお知らせや世界のアマチュア衛星に関する情報が
      満載されています.
   
 =========================================================================
       JAMSATのメンバーのご協力によりJH6MME(高山 秀造)が
    執筆・編集を担当しております.ご指摘の意見、疑問やこのようにしたら
    というアイデアがありましたら小さなことでもかまいませんので気軽に下
    記アドレスまでご連絡ください.jamsat−newsからjas2
    infoへの転載をJH4PHW局坂井さんに担当して頂いております.
                    E-mail : jh6mme@jamsat.or.jp : jh4phw@jamsat.or.jp
 ===============================   END  ===============================